SCP
0 0 0 0 0 0 0 0 0 0 0 0 0 0 0 0 0 0 0 0 0 0 0 0 0 0 0 0 0 0 0 0 0 0 0 0 0 0 0 0 0 0 0 0
0 0 0 0 0 0 0 0 0 0 0 0 0 0 0 0 0 0 0 0 0 0 0 0 0 0 0 0 0 0 0 0 0 0 0 0 0 0 0 0 0 0 0 0
0 0 0 0 0 0 0 0 0 0 0 0 0 0 0 0 0 0 0 0 0 0 0 0 0 0 0 0 0 0 0 0 0 0 0 0 0 0 0 0 0 0 0 0
0 0 0 0 0 0 0 0 0 0 0 0 0 0 0 0 0 0 0 0 0 0 0 0 0 0 0 0 0 0 0 0 0 0 0 0 0 0 0 0 0 0 0 0
0 0 0 0 0 0 0 0 0 0 0 0 0 0 0 0 0 0 0 0 0 0 0 0 0 0 0 0 0 0 0 0 0 0 0 0 0 0 0 0 0 0 0 0
0 0 0 0 0 0 0 0 0 0 0 0 0 0 0 0 0 0 0 0 0 0 0 0 0 0 0 0 0 0 0 0 0 0 0 0 0 0 0 0 0 0 0 0
0 0 0 0 0 0 0 0 0 0 0 0 0 0 0 0 0 0 0 0 0 0 0 0 0 0 0 0 0 0 0 0 0 0 0 0 0 0 0 0 0 0 0 0
0 0 0 0 0 0 0 0 0 0 0 0 0 0 0 0 0 0 0 0 0 0 0 0 0 0 0 0 0 0 0 0 0 0 0 0 0 0 0 0 0 0 0 0
0 0 0 0 0 0 0 0 0 0 0 0 0 0 0 0 0 0 0 0 0 0 0 0 0 0 0 0 0 0 0 0 0 0 0 0 0 0 0 0 0 0 0 0
0 0 0 0 0 0 0 0 0 0 0 0 0 0 0 0 0 0 0 0 0 0 0 0 0 0 0 0 0 0 0 0 0 0 0 0 0 0 0 0 0 0 0 0
0 0 0 0 0 0 0 0 0 0 0 0 0 0 0 0 0 0 0 0 0 0 0 0 0 0 0 0 0 0 0 0 0 0 0 0 0 0 0 0 0 0 0 0
0 0 0 0 0 0 0 0 0 0 0 0 0 0 0 0 0 0 0 0 0 0 0 0 0 0 0 0 0 0 0 0 0 0 0 0 0 0 0 0 0 0 0 0
0 0 0 0 0 0 0 0 0 0 0 0 0 0 0 0 0 0 0 0 0 0 0 0 0 0 0 0 0 0 0 0 0 0 0 0 0 0 0 0 0 0 0 0
0 0 0 0 0 0 0 0 0 0 0 0 0 0 0 0 0 0 0 0 0 0 0 0 0 0 0 0 0 0 0 0 0 0 0 0 0 0 0 0 0 0 0 0
0 0 0 0 0 0 0 0 0 0 0 0 0 0 0 0 0 0 0 0 0 0 0 0 0 0 0 0 0 0 0 0 0 0 0 0 0 0 0 0 0 0 0 0
0 0 0 0 0 0 0 0 0 0 0 0 0 0 0 0 0 0 0 0 0 0 0 0 0 0 0 0 0 0 0 0 0 0 0 0 0 0 0 0 0 0 0 0
0 0 0 0 0 0 0 0 0 0 0 0 0 0 0 0 0 0 0 0 0 0 0 0 0 0 0 0 0 0 0 0 0 0 0 0 0 0 0 0 0 0 0 0
0 0 0 0 0 0 0 0 0 0 0 0 0 0 0 0 0 0 0 0 0 0 0 0 0 0 0 0 0 0 0 0 0 0 0 0 0 0 0 0 0 0 0 0
0 0 0 0 0 0 0 0 0 0 0 0 0 0 0 0 0 0 0 0 0 0 0 0 0 0 0 0 0 0 0 0 0 0 0 0 0 0 0 0 0 0 0 0
0 0 0 0 0 0 0 0 0 0 0 0 0 0 0 0 0 0 0 0 0 0 0 0 0 0 0 0 0 0 0 0 0 0 0 0 0 0 0 0 0 0 0 0
0 0 0 0 0 0 0 0 0 0 0 0 0 0 0 0 0 0 0 0 0 0 0 0 0 0 0 0 0 0 0 0 0 0 0 0 0 0 0 0 0 0 0 0
0 0 0 0 0 0 0 0 0 0 0 0 0 0 0 0 0 0 0 0 0 0 0 0 0 0 0 0 0 0 0 0 0 0 0 0 0 0 0 0 0 0 0 0
0 0 0 0 0 0 0 0 0 0 0 0 0 0 0 0 0 0 0 0 0 0 0 0 0 0 0 0 0 0 0 0 0 0 0 0 0 0 0 0 0 0 0 0
0 0 0 0 0 0 0 0 0 0 0 0 0 0 0 0 0 0 0 0 0 0 0 0 0 0 0 0 0 0 0 0 0 0 0 0 0 0 0 0 0 0 0 0
0 0 0 0 0 0 0 0 0 0 0 0 0 0 0 0 0 0 0 0 0 0 0 0 0 0 0 0 0 0 0 0 0 0 0 0 0 0 0 0 0 0 0 0
0 0 0 0 0 0 0 0 0 0 0 0 0 0 0 0 0 0 0 0 0 0 0 0 0 0 0 0 0 0 0 0 0 0 0 0 0 0 0 0 0 0 0 0
0 0 0 0 0 0 0 0 0 0 0 0 0 0 0 0 0 0 0 0 0 0 0 0 0 0 0 0 0 0 0 0 0 0 0 0 0 0 0 0 0 0 0 0
Wind_Speed
7 7 6 7 8 9 10 10 9 9 9 9 5 4 3 3 3 3 3 4 4 4 3 3 2 2 2 2 2 2 2 2 2 2 2 2 2 2 2 3 3 3 3 3
6 6 7 10 11 12 12 12 13 12 13 8 5 4 4 3 3 3 3 3 3 3 3 3 3 3 3 3 2 2 2 2 2 2 2 2 2 2 2 2 2 2 3 3
5 4 4 10 11 13 11 10 10 13 12 4 3 4 4 4 4 3 3 2 3 3 3 3 3 3 3 3 2 2 2 2 2 2 2 2 2 2 3 3 2 3 3 3
3 2 9 8 3 7 9 10 10 8 6 5 5 4 3 3 3 3 3 2 3 3 2 2 2 2 2 3 2 2 2 2 2 2 2 2 2 2 3 2 2 3 3 3
3 5 9 5 3 4 5 8 7 8 7 5 2 2 3 2 2 3 2 2 2 2 2 2 2 3 3 3 3 3 3 3 2 2 2 2 3 3 2 2 2 3 3 3
4 4 7 4 1 1 2 6 4 6 6 4 1 2 4 1 2 1 1 1 1 1 2 2 2 3 3 3 3 3 3 3 2 2 3 3 3 3 2 2 3 3 3 3
7 7 8 3 1 2 3 6 2 4 4 4 4 5 2 1 1 1 1 1 2 2 2 3 3 3 3 3 4 3 2 2 2 2 3 3 2 2 2 2 2 2 3 3
6 7 9 3 4 5 5 2 1 1 1 2 3 2 1 1 1 1 1 1 2 2 2 2 3 4 4 4 3 2 2 2 2 2 2 2 2 2 2 2 2 2 3 3
7 8 4 4 4 4 2 3 3 2 1 1 2 2 1 1 1 1 2 2 2 2 2 2 3 4 4 3 3 2 2 2 2 2 2 2 2 2 2 2 2 2 2 3
6 7 5 4 4 4 3 3 3 2 2 2 3 3 3 2 2 2 2 2 2 2 2 2 3 3 3 3 3 3 3 2 2 2 2 2 2 2 2 2 3 3 3 3
7 7 5 5 5 5 4 3 3 3 2 3 3 4 4 3 3 2 2 2 2 3 3 3 2 3 3 3 3 3 3 2 2 2 2 2 2 3 3 4 4 3 3 3
7 6 5 6 4 4 4 4 4 3 3 3 4 4 4 3 3 2 2 2 2 2 3 3 3 3 3 3 4 3 2 2 2 2 2 2 2 2 4 4 5 5 5 4
6 5 5 6 5 4 4 4 4 4 4 4 3 3 3 3 2 2 2 2 3 3 3 3 3 3 3 3 3 3 3 3 2 2 2 2 2 2 2 3 4 5 5 5
5 4 6 5 5 4 3 4 3 3 3 3 3 3 3 3 2 3 3 3 3 2 3 3 3 3 3 3 3 3 3 3 3 3 3 3 3 3 2 2 2 3 3 4
5 4 5 5 4 4 3 3 3 3 3 3 2 3 3 3 3 3 2 2 2 2 2 2 3 3 2 3 3 3 3 2 2 2 2 3 2 2 2 2 2 2 1 2
5 4 4 4 5 4 3 3 4 4 3 3 2 3 3 3 2 2 2 2 2 3 3 3 3 3 2 3 3 2 3 4 3 2 2 2 2 2 2 2 2 2 2 1
4 4 4 4 4 4 4 3 3 3 2 3 3 2 2 2 2 2 2 2 2 2 2 3 3 2 2 3 3 2 2 3 3 2 2 2 2 2 2 2 2 2 2 2
5 5 5 5 5 4 4 3 2 2 2 2 2 2 2 3 3 2 2 1 1 1 2 2 2 2 2 3 2 2 2 2 2 2 2 2 2 2 2 2 2 2 1 2
2 2 2 3 3 3 3 2 2 2 2 2 2 2 2 2 2 2 1 1 1 2 2 1 1 1 2 2 2 2 2 2 2 1 1 2 2 2 2 2 2 2 1 1
1 1 1 1 1 1 1 1 1 1 1 2 2 2 2 1 1 1 1 1 1 1 1 1 0 1 1 2 2 1 2 2 2 2 1 2 2 2 2 2 2 2 1 1
1 1 1 1 1 1 1 1 1 1 1 2 2 2 2 1 1 1 1 0 1 0 0 0 0 0 1 1 2 1 1 2 2 2 2 2 2 2 2 2 2 1 1 1
1 1 1 1 1 2 2 1 2 2 2 2 2 2 2 1 1 1 1 0 1 1 1 0 0 0 1 1 1 1 1 1 1 1 1 1 2 2 2 2 2 1 1 1
1 1 1 1 2 2 2 2 2 2 2 2 2 2 1 1 1 1 0 0 0 2 1 1 1 1 0 1 1 1 1 1 1 1 1 1 2 2 2 2 1 1 1 1
1 1 1 2 2 3 3 2 2 2 2 2 2 1 1 1 1 1 0 1 2 2 1 1 2 1 1 1 1 1 1 1 1 1 1 1 1 1 1 1 1 1 1 1
1 1 2 2 2 2 2 2 3 3 2 2 2 2 1 1 1 1 1 1 2 2 1 2 2 2 1 1 1 0 0 0 0 0 0 0 0 1 1 1 1 1 1 1
1 1 1 1 1 1 1 1 1 1 1 2 2 2 2 2 2 1 1 1 2 2 2 1 1 1 1 1 1 1 1 0 1 0 0 0 0 0 0 0 1 1 1 1
2 1 1 2 2 1 1 1 1 1 1 1 1 1 2 2 2 1 1 1 2 2 1 1 1 1 1 1 1 1 1 1 1 1 1 0 0 0 0 1 1 1 1 1
Wind_Direction
262 272 265 251 237 221 222 228 238 254 256 258 246 248 248 234 209 198 203 198 193 196 196 194 201 202 183 177 176 169 180 198 213 218 224 229 241 238 235 237 236 228 222 227
273 264 261 264 248 236 235 236 245 259 265 256 254 254 257 249 236 228 223 208 202 201 199 200 202 199 186 184 186 175 189 209 212 214 235 238 242 245 240 245 245 238 232 231
261 263 289 262 232 223 227 225 225 241 250 264 272 263 252 246 235 225 228 224 214 212 209 209 206 194 191 186 174 176 186 198 206 211 228 237 241 243 239 237 241 242 242 240
255 256 244 245 205 204 220 236 233 245 255 253 252 261 261 249 223 236 224 222 220 204 199 203 190 176 172 157 166 179 185 198 205 212 229 237 241 244 252 241 236 239 242 243
223 245 267 265 235 193 208 252 229 235 251 258 276 301 278 254 189 193 198 199 205 198 190 193 187 174 160 166 177 187 201 208 209 210 225 235 245 251 256 252 246 250 250 249
228 242 251 253 199 187 168 260 228 215 236 236 198 252 256 171 123 139 150 180 206 203 179 190 195 167 167 187 190 205 213 213 213 214 219 229 243 257 261 258 255 259 265 257
229 244 261 245 180 106 192 251 250 217 227 215 215 221 213 139 161 180 203 210 210 198 191 202 191 166 183 197 207 209 202 208 218 222 225 230 243 252 261 264 262 257 266 267
207 228 248 191 153 195 229 280 306 277 256 226 223 225 208 225 231 215 232 232 211 195 205 200 174 170 198 211 202 180 189 209 222 223 224 218 226 246 245 248 253 253 264 277
206 225 244 192 215 243 292 293 305 313 309 211 218 231 231 246 240 228 222 226 206 192 200 197 178 178 206 212 173 174 192 211 222 225 226 216 216 228 238 241 246 248 250 264
250 256 259 250 255 270 272 267 281 274 264 242 231 228 235 239 236 234 238 230 208 186 202 219 197 193 205 191 173 180 201 215 211 219 232 230 225 222 230 235 243 246 248 259
254 267 283 263 253 260 269 267 263 260 247 238 235 240 239 242 241 233 236 232 203 195 211 223 205 200 192 182 178 191 207 214 217 223 231 234 236 235 236 237 239 246 243 240
240 241 237 260 260 260 259 263 256 247 252 242 232 239 239 238 234 225 226 216 205 207 213 225 208 206 198 186 185 192 208 213 216 218 228 231 243 276 265 254 262 261 259 258
249 265 264 271 276 270 257 261 259 247 242 248 247 230 229 231 224 207 213 215 211 213 220 221 210 212 203 190 189 196 210 218 218 220 226 232 238 242 270 284 271 266 264 267
257 267 272 267 270 274 268 269 270 262 253 244 240 225 215 217 214 209 222 220 205 204 216 217 213 221 205 187 187 200 212 224 224 222 223 229 234 235 238 250 273 283 275 269
262 260 258 273 279 275 266 261 261 261 257 258 239 216 205 207 218 223 219 201 191 208 222 221 222 226 199 186 191 205 209 212 216 222 227 231 230 231 237 241 250 269 296 290
274 274 261 260 263 268 266 255 249 250 245 240 230 216 206 203 214 216 212 187 190 222 231 230 235 227 192 186 193 206 214 221 222 221 227 228 226 228 231 232 245 248 254 270
253 258 256 262 266 270 266 260 249 244 235 227 217 199 190 198 213 217 216 205 205 227 233 233 241 221 193 189 194 208 211 215 217 219 220 226 229 227 222 222 236 242 250 255
233 241 244 243 250 260 266 263 251 236 228 220 198 182 190 200 211 218 212 182 191 270 261 237 224 204 195 192 192 200 201 205 208 208 211 222 229 220 214 219 228 233 251 252
259 255 262 259 254 247 245 243 232 223 213 192 182 194 201 203 199 194 172 171 202 247 267 248 235 186 188 194 191 192 196 200 209 214 210 223 229 216 210 215 221 225 221 225
304 312 318 311 313 231 219 212 196 195 190 168 159 162 170 179 170 163 156 195 229 235 249 251 217 183 186 195 195 190 194 198 202 206 206 213 215 209 204 210 209 211 219 220
333 348 358 5 17 48 102 135 136 139 139 144 154 165 164 152 140 144 148 200 302 316 311 278 94 195 194 190 190 183 189 195 198 201 209 214 206 201 203 207 210 212 221 234
350 10 22 57 77 63 49 66 98 107 99 99 111 123 124 116 106 91 78 198 294 347 8 357 313 233 232 187 176 178 186 191 194 199 210 211 199 200 208 206 210 214 214 227
12 39 56 75 96 91 59 55 74 89 93 100 115 130 136 126 109 121 45 358 357 5 9 343 344 352 18 118 154 173 187 194 203 212 220 220 204 199 204 206 209 209 207 214
40 54 63 74 85 83 69 48 54 64 70 65 67 82 101 92 48 36 80 24 12 13 14 345 355 11 54 70 111 145 179 199 212 217 225 228 205 188 195 203 210 213 214 209
57 65 80 94 93 92 89 80 69 65 68 62 52 43 42 55 84 50 34 29 25 22 16 1 8 27 48 60 80 87 112 187 176 179 214 222 204 190 198 206 208 215 228 230
56 73 83 90 111 118 109 95 78 62 63 55 40 41 47 51 62 52 36 17 14 21 18 6 9 27 39 47 51 50 43 32 37 33 7 2 39 320 231 218 216 225 227 230
66 67 67 61 56 70 86 90 89 70 62 71 33 29 39 38 39 33 21 13 15 19 16 10 13 25 35 44 48 45 40 44 44 32 21 17 4 337 284 264 251 238 223 214